Zurück zum Katalog

ARIANE 1 DEB

AktivSSO
NORAD 17815·DEBRIS·🇫🇷 France

Gestartet Feb 22, 1986 von Guiana Space Centre

Loading…

Nächste Überflüge (nächste 24 Stunden)

TLE

AktuellSource: Space-Track

Epoche: Sep 14, 2026, 10:02 UTC

1 17815U 86019ME  26257.41869656  .00000636  00000-0  19690-3 0  9996
2 17815  98.2103 237.8962 0024950 200.4324 312.7431 14.44195232 75399

Verfolge ARIANE 1 DEB in Echtzeit mit AllMySat

Download on the App Store